This is the latest recevied weather packets stored in our database for station/object KO4APQ. If no packets are shown the sender has not sent any weather packets the latest 10 day(s).
| Time | Temp. | Humidity | Pressure | Rain* | Wind** | Luminosity | Snow |
|---|---|---|---|---|---|---|---|
| 1777500312 | 26.67° C | 53% | 1009.5 hPa | 0 mm | - | 190 W/m² | - |
| 1777500008 | 27.22° C | 53% | 1009.6 hPa | 0 mm | - | 112 W/m² | - |
| 1777499705 | 28.33° C | 50% | 1009.5 hPa | 0 mm | - | 158 W/m² | - |
| 1777499401 | 27.78° C | 51% | 1009.5 hPa | 0 mm | - | 462 W/m² | - |
| 1777499100 | 27.78° C | 51% | 1009.5 hPa | 0 mm | - | 504 W/m² | - |
| 1777498796 | 27.78° C | 50% | 1009.3 hPa | 0 mm | - | 445 W/m² | - |
| 1777498492 | 28.33° C | 51% | 1009.5 hPa | 0 mm | - | 405 W/m² | - |
| 1777498189 | 27.78° C | 51% | 1009.4 hPa | 0 mm | - | 445 W/m² | - |
| 1777497887 | 27.78° C | 50% | 1009.6 hPa | 0 mm | - | 477 W/m² | - |
| 1777497582 | 27.78° C | 51% | 1009.6 hPa | 0 mm | - | 547 W/m² | - |
| 1777497279 | 27.22° C | 52% | 1009.4 hPa | 0 mm | - | 528 W/m² | - |
| 1777496975 | 27.22° C | 51% | 1009.7 hPa | 0 mm | - | 318 W/m² | - |
| 1777496673 | 27.78° C | 49% | 1009.6 hPa | 0 mm | - | 477 W/m² | - |
| 1777496369 | 27.78° C | 48% | 1009.8 hPa | 0 mm | - | 534 W/m² | - |
| 1777496065 | 28.33° C | 49% | 1009.9 hPa | 0 mm | - | 530 W/m² | - |
| 1777495761 | 27.78° C | 50% | 1009.9 hPa | 0 mm | - | 611 W/m² | - |
| 1777495458 | 27.78° C | 50% | 1009.9 hPa | 0 mm | - | 580 W/m² | - |
| 1777495154 | 27.78° C | 49% | 1010 hPa | 0 mm | - | 639 W/m² | - |
| 1777494851 | 27.78° C | 50% | 1010.2 hPa | 0 mm | - | 551 W/m² | - |
| 1777494548 | 27.78° C | 49% | 1010.1 hPa | 0 mm | - | 639 W/m² | - |
| 1777494246 | 27.22° C | 51% | 1010.3 hPa | 0 mm | - | 684 W/m² | - |
| 1777493942 | 27.78° C | 50% | 1010.6 hPa | 0 mm | - | 699 W/m² | - |
| 1777493641 | 27.78° C | 52% | 1010.8 hPa | 0 mm | - | 720 W/m² | - |
| 1777493337 | 27.78° C | 52% | 1010.7 hPa | 0 mm | - | 767 W/m² | - |
| 1777493034 | 27.78° C | 49% | 1011 hPa | 0 mm | - | 748 W/m² | - |
* Rain latest hour (hover to see other rain measurements)
** Current wind speed in m/s (hover to see current wind gust speed)